Regional Weather Roundup
Issued by NWS Sioux Falls, SD

Home | Current Version | Previous Version | Text Only | Print | Product List | Glossary Off
Versions: 1 2 3 4 5 6 7 8 9 10 11 12 13 14 15 16 17 18 19 20 21 22 23 24 25 26 27 28 29 30 31 32 33 34 35 36 37 38 39 40 41 42 43 44 45 46 47 48 49 50

980
ASUS43 KFSD 230702
RWRFSD

WEATHER ROUNDUP FOR SE SOUTH DAKOTA/SW MINNESOTA/NW IOWA
NATIONAL WEATHER SERVICE SIOUX FALLS SD
100 AM CST THU FEB 23 2017

NOTE: "FAIR" INDICATES FEW OR NO CLOUDS BELOW 12,000 FEET WITH NO
SIGNIFICANT WEATHER AND OR OBSTRUCTIONS TO VISIBILITY.


SDZ038>040-050-052>070-230800-
SOUTHEAST SOUTH DAKOTA

CITY           SKY/WX    TMP DP  RH WIND       PRES   REMARKS
BROOKINGS      CLOUDY    30  27  88 N15       29.90S WCI  19
CHAMBERLAIN    CLOUDY    33  29  86 NE9       29.94F WCI  25
HURON          CLOUDY    31  26  82 N9        29.96R WCI  23
MADISON        CLOUDY    30  30 100 NE18      29.90F WCI  18
MITCHELL       CLOUDY    33  30  88 N12       29.94S WCI  24
SIOUX FALLS    CLOUDY    34  31  88 N14G26    29.87F WCI  25
WINNER         CLOUDY    33  29  85 NE17      29.92F WCI  22
YANKTON        CLOUDY    36  30  80 N15G22    29.87S
$$

MNZ071-072-080-081-089-090-097-098-230800-
SOUTHWEST MINNESOTA

CITY           SKY/WX    TMP DP  RH WIND       PRES   REMARKS
FAIRMONT       CLOUDY    36  33  89 N21G28    29.83S
JACKSON          N/A     34  32  93 N17G25    29.84R WCI  23
LUVERNE        CLOUDY    32  30  93 N15G24    29.86F WCI  22
MARSHALL       CLOUDY    32  30  92 N15       29.91R WCI  22
MONTEVIDEO     CLOUDY    34  30  86 N10       29.93R WCI  26
PIPESTONE      CLOUDY    32  27  80 N12       29.88S WCI  23
REDWOOD FALLS  CLOUDY    35  31  85 N10       29.88R WCI  27
TRACY          CLOUDY    33  32  96 NW16      29.90R WCI  22
WINDOM         CLOUDY    34  34 100 NW21      29.85S WCI  22
WORTHINGTON    CLOUDY    32  31  96 N22G28    29.85F WCI  19
$$

IAZ001>003-012>014-020>022-031-032-NEZ013-014-SDZ071-230800-
NORTHWEST IOWA

CITY           SKY/WX    TMP DP  RH WIND       PRES   REMARKS
CHEROKEE       CLOUDY    36  34  95 N9G18     29.86R
DENISON        PTCLDY    41  37  87 NE10      29.79R
ESTHERVILLE    CLOUDY    35  34  96 N21G28    29.82S WCI  24
LE MARS        CLOUDY    36  34  93 N14G22    29.86F
ORANGE CITY    CLOUDY    36  34  93 NE9       29.86R
SHELDON        CLOUDY    34  34 100 N17G24    29.84R WCI  23
SIOUX CITY     CLOUDY    42  36  79 N23       29.81F
SPENCER        CLOUDY    35  33  92 N18       29.84R WCI  24
STORM LAKE     CLOUDY    36  34  93 N15       29.83S
$$

ABBREVIATIONS USED IN REMARKS
   TC - TEMPERATURE IN CELSIUS
  WCI - WIND CHILL INDEX
   HX - HEAT INDEX
  VSB - VISIBILITY





USA.gov is the U.S. government's official web portal to all federal, state and local government web resources and services.